TimePDT,TemperatureF,Dew PointF,Humidity,Sea Level PressureIn,VisibilityMPH,Wind Direction,Wind SpeedMPH,Gust SpeedMPH,PrecipitationIn,Events,Conditions,WindDirDegrees,DateUTC
12:15 AM,66.2,35.6,32,30.24,10.0,West,12.7,-,N/A,,Clear,270,2013-06-09 07:15:00
12:35 AM,62.6,35.6,37,30.24,10.0,NNW,4.6,-,N/A,,Clear,330,2013-06-09 07:35:00
12:55 AM,62.6,33.8,34,30.23,10.0,West,8.1,-,N/A,,Clear,280,2013-06-09 07:55:00
1:15 AM,64.4,33.8,32,30.23,10.0,West,5.8,-,N/A,,Clear,280,2013-06-09 08:15:00
1:35 AM,59.0,33.8,39,30.23,10.0,West,9.2,-,N/A,,Clear,270,2013-06-09 08:35:00
1:55 AM,62.6,33.8,34,30.23,10.0,WNW,5.8,-,N/A,,Clear,300,2013-06-09 08:55:00
2:15 AM,60.8,33.8,36,30.23,10.0,WNW,9.2,-,N/A,,Clear,290,2013-06-09 09:15:00
2:35 AM,60.8,33.8,36,30.23,10.0,West,10.4,-,N/A,,Clear,280,2013-06-09 09:35:00
2:55 AM,59.0,33.8,39,30.23,10.0,WNW,8.1,-,N/A,,Clear,290,2013-06-09 09:55:00
3:15 AM,60.8,33.8,36,30.23,10.0,West,10.4,-,N/A,,Clear,270,2013-06-09 10:15:00
3:35 AM,59.0,33.8,39,30.23,10.0,West,10.4,17.3,N/A,,Clear,270,2013-06-09 10:35:00
3:55 AM,59.0,33.8,39,30.22,10.0,West,5.8,20.7,N/A,,Clear,270,2013-06-09 10:55:00
4:15 AM,57.2,33.8,41,30.22,10.0,WNW,5.8,-,N/A,,Clear,290,2013-06-09 11:15:00
4:35 AM,57.2,33.8,41,30.22,10.0,West,9.2,-,N/A,,Clear,270,2013-06-09 11:35:00
4:55 AM,55.4,33.8,44,30.22,10.0,Calm,Calm,-,N/A,,Clear,0,2013-06-09 11:55:00
5:15 AM,57.2,35.6,44,30.22,10.0,West,5.8,-,N/A,,Clear,280,2013-06-09 12:15:00
5:35 AM,55.4,35.6,47,30.22,10.0,West,4.6,-,N/A,,Clear,280,2013-06-09 12:35:00
5:55 AM,55.4,35.6,47,30.22,10.0,NW,3.5,-,N/A,,Clear,320,2013-06-09 12:55:00
6:15 AM,55.4,35.6,47,30.23,10.0,NNW,3.5,-,N/A,,Clear,340,2013-06-09 13:15:00
6:35 AM,59.0,37.4,45,30.23,10.0,NNW,3.5,-,N/A,,Clear,330,2013-06-09 13:35:00
6:55 AM,60.8,37.4,42,30.23,10.0,NW,3.5,-,N/A,,Clear,310,2013-06-09 13:55:00
7:15 AM,62.6,39.2,42,30.23,10.0,WNW,6.9,-,N/A,,Clear,300,2013-06-09 14:15:00
7:35 AM,66.2,41.0,40,30.22,10.0,Calm,Calm,-,N/A,,Clear,0,2013-06-09 14:35:00
7:55 AM,69.8,41.0,35,30.22,10.0,Calm,Calm,-,N/A,,Clear,0,2013-06-09 14:55:00
8:15 AM,71.6,41.0,33,30.22,10.0,SE,4.6,-,N/A,,Clear,130,2013-06-09 15:15:00
8:35 AM,73.4,39.2,29,30.22,10.0,SE,6.9,-,N/A,,Clear,140,2013-06-09 15:35:00
8:55 AM,75.2,39.2,27,30.22,10.0,SE,4.6,-,N/A,,Clear,130,2013-06-09 15:55:00
9:15 AM,77.0,39.2,26,30.22,10.0,SE,5.8,-,N/A,,Clear,130,2013-06-09 16:15:00
9:35 AM,78.8,39.2,24,30.21,10.0,SSE,4.6,-,N/A,,Clear,150,2013-06-09 16:35:00
9:55 AM,80.6,35.6,20,30.20,10.0,East,4.6,-,N/A,,Clear,100,2013-06-09 16:55:00
10:15 AM,82.4,33.8,17,30.20,10.0,East,4.6,-,N/A,,Clear,100,2013-06-09 17:15:00
10:35 AM,82.4,32.0,16,30.20,10.0,ESE,3.5,-,N/A,,Clear,120,2013-06-09 17:35:00
10:55 AM,84.2,30.2,14,30.19,10.0,East,8.1,-,N/A,,Clear,100,2013-06-09 17:55:00
11:15 AM,86.0,30.2,13,30.18,10.0,SE,6.9,-,N/A,,Clear,140,2013-06-09 18:15:00
11:35 AM,87.8,28.4,12,30.18,10.0,ESE,10.4,19.6,N/A,,Clear,120,2013-06-09 18:35:00
11:55 AM,87.8,28.4,12,30.18,10.0,ESE,17.3,26.5,N/A,,Clear,110,2013-06-09 18:55:00
12:15 PM,86.0,28.4,12,30.17,10.0,ESE,17.3,24.2,N/A,,Clear,110,2013-06-09 19:15:00
12:35 PM,86.0,30.2,13,30.17,10.0,ESE,18.4,24.2,N/A,,Clear,110,2013-06-09 19:35:00
12:55 PM,86.0,28.4,12,30.16,10.0,ESE,17.3,24.2,N/A,,Clear,120,2013-06-09 19:55:00
1:15 PM,86.0,28.4,12,30.16,10.0,ESE,19.6,27.6,N/A,,Clear,110,2013-06-09 20:15:00
1:35 PM,87.8,28.4,12,30.15,10.0,East,19.6,28.8,N/A,,Clear,100,2013-06-09 20:35:00
1:55 PM,89.6,28.4,11,30.15,10.0,ESE,17.3,28.8,N/A,,Clear,110,2013-06-09 20:55:00
2:15 PM,89.6,28.4,11,30.14,10.0,SSE,15.0,25.3,N/A,,Clear,150,2013-06-09 21:15:00
2:35 PM,87.8,26.6,11,30.13,10.0,East,23.0,27.6,N/A,,Clear,100,2013-06-09 21:35:00
2:55 PM,89.6,26.6,10,30.12,10.0,East,12.7,28.8,N/A,,Clear,100,2013-06-09 21:55:00
3:15 PM,86.0,24.8,11,30.11,10.0,ESE,16.1,32.2,N/A,,Clear,120,2013-06-09 22:15:00
3:35 PM,86.0,24.8,11,30.11,10.0,ESE,19.6,26.5,N/A,,Clear,120,2013-06-09 22:35:00
3:55 PM,86.0,24.8,11,30.10,10.0,ESE,17.3,24.2,N/A,,Clear,120,2013-06-09 22:55:00
4:15 PM,86.0,24.8,11,30.09,10.0,ESE,18.4,27.6,N/A,,Clear,120,2013-06-09 23:15:00
4:35 PM,84.2,24.8,11,30.09,10.0,ESE,21.9,28.8,N/A,,Clear,120,2013-06-09 23:35:00
4:55 PM,84.2,24.8,11,30.09,10.0,ESE,21.9,32.2,N/A,,Clear,110,2013-06-09 23:55:00
5:15 PM,86.0,24.8,11,30.08,10.0,ESE,18.4,32.2,N/A,,Clear,120,2013-06-10 00:15:00
5:35 PM,82.4,24.8,12,30.08,10.0,ESE,23.0,33.4,N/A,,Clear,120,2013-06-10 00:35:00
5:55 PM,82.4,24.8,12,30.08,10.0,ESE,19.6,33.4,N/A,,Clear,120,2013-06-10 00:55:00
6:15 PM,78.8,23.0,13,30.07,10.0,ESE,16.1,25.3,N/A,,Clear,120,2013-06-10 01:15:00
6:35 PM,80.6,23.0,12,30.08,10.0,SE,21.9,29.9,N/A,,Clear,130,2013-06-10 01:35:00
6:55 PM,80.6,23.0,12,30.08,10.0,SSE,23.0,29.9,N/A,,Clear,150,2013-06-10 01:55:00
7:15 PM,78.8,23.0,13,30.08,10.0,SE,11.5,18.4,N/A,,Clear,130,2013-06-10 02:15:00
7:35 PM,77.0,23.0,13,30.09,10.0,SE,9.2,20.7,N/A,,Clear,140,2013-06-10 02:35:00
7:55 PM,75.2,21.2,13,30.09,10.0,ESE,8.1,21.9,N/A,,Clear,120,2013-06-10 02:55:00
8:15 PM,71.6,23.0,16,30.10,10.0,ESE,6.9,-,N/A,,Clear,120,2013-06-10 03:15:00
8:35 PM,68.0,23.0,18,30.10,10.0,ESE,6.9,-,N/A,,Clear,120,2013-06-10 03:35:00
8:55 PM,68.0,21.2,17,30.10,10.0,ESE,5.8,-,N/A,,Clear,110,2013-06-10 03:55:00
9:15 PM,68.0,17.6,15,30.11,10.0,SE,4.6,-,N/A,,Clear,130,2013-06-10 04:15:00
9:35 PM,66.2,14.0,13,30.12,10.0,SE,5.8,-,N/A,,Clear,130,2013-06-10 04:35:00
9:55 PM,66.2,10.4,11,30.12,10.0,ESE,6.9,-,N/A,,Clear,110,2013-06-10 04:55:00
10:15 PM,64.4,10.4,12,30.13,10.0,Calm,Calm,-,N/A,,Clear,0,2013-06-10 05:15:00
10:35 PM,60.8,37.4,42,30.13,10.0,Calm,Calm,-,N/A,,Clear,0,2013-06-10 05:35:00
10:55 PM,57.2,28.4,33,30.13,10.0,Calm,Calm,-,N/A,,Clear,0,2013-06-10 05:55:00
11:15 PM,57.2,35.6,44,30.12,10.0,WNW,4.6,-,N/A,,Clear,290,2013-06-10 06:15:00
11:55 PM,53.6,33.8,47,30.11,10.0,NNW,4.6,-,N/A,,Clear,340,2013-06-10 06:55:00